[[{"header":{"parameterUnit":"m.s-1","parameterCategory":1,"la1":30.2991,"la2":30.254,"lo1":-89.0895,"lo2":-89.0444,"dy":0.0017,"dx":0.0017,"nx":28,"ny":28,"refTime":"2023-04-01T21:00:00:Z","depth":0,"parameterNumber":2,"parameterNumberName":"U-component_of_WINDS"},"data":[0,0,0,0,0,0,0,0,0,0,0,0,0,0,0,0,0,0,0,0,0,0,0,0,0,0,0,0,0,0,0,0,0,0,0,0,0,0,0,0,0,0,0,0,0,0,0,0,0,0,0,0,0,0,0,0,0,0,2.0673,2.0672,0,2.0644,2.0644,2.0644,2.0643,2.0643,2.0643,2.0644,2.0614,2.0613,2.0612,0,0,0,0,0,0,0,0,0,0,0,0,0,2.0728,2.0727,2.0673,2.0672,2.0672,2.0644,2.0644,2.0644,2.0643,2.0643,2.0643,2.0644,2.0615,2.0613,2.0612,0,0,0,0,0,0,0,0,0,0,0,0,0,2.0702,2.0727,2.0673,2.0668,2.0668,2.0644,2.0644,2.0643,2.0642,2.0643,2.0643,2.0644,2.0615,2.0614,2.0612,2.0591,0,0,2.0607,2.0606,0,0,0,0,0,0,0,0,2.0704,2.07,2.0669,2.0669,2.0668,2.0648,2.0653,2.0626,2.0642,2.0652,2.0644,2.0644,2.0625,2.0623,2.0616,2.059,2.0589,2.0607,2.0606,2.0605,2.0605,0,0,0,0,0,0,0,2.0706,2.0701,2.0662,2.0669,2.0668,2.0668,2.0665,2.0648,2.0636,2.0651,2.0651,2.0648,2.0625,2.0618,2.0615,2.0588,2.0607,2.0605,2.0604,2.0604,2.0547,2.0547,0,0,0,0,0,0,2.0708,2.0703,2.0662,2.0661,2.0687,2.0667,2.0663,2.0653,2.0636,2.0634,2.0647,2.0648,2.062,2.0617,2.0614,2.0591,2.0605,2.0604,2.0603,2.0548,2.0547,2.0546,0,0,0,0,0,0,2.0709,2.0705,2.0664,2.0682,2.0677,2.0665,2.0654,2.0653,2.0646,2.0633,2.0631,2.0642,2.0621,2.0617,2.0598,2.059,2.0603,2.0601,2.0548,2.0547,2.0547,2.0543,0,0,0,0,0,0,2.0711,2.0705,2.0696,2.0682,2.0676,2.0647,2.0654,2.0652,2.0643,2.0643,2.0628,2.0626,2.0621,2.06,2.0596,2.0588,2.06,2.0549,2.0548,2.0547,2.0544,2.0542,2.0541,0,0,0,0,0,2.0713,2.0696,2.0696,2.0691,2.0665,2.0646,2.0643,2.0637,2.0642,2.0634,2.0627,2.0626,2.0591,2.0598,2.0594,2.0585,2.0549,2.0548,2.0547,2.0544,2.0542,2.0541,0,0,0,0,0,0,2.0709,2.0694,2.0694,2.0671,2.066,2.0646,2.0635,2.0635,2.0622,2.0623,2.0617,2.0613,2.0595,2.0588,2.0596,2.0565,2.0571,2.0569,2.057,2.0569,2.0567,2.0569,2.0599,0,0,0,0,0,2.0706,2.0692,2.0679,2.0661,2.0655,2.0647,2.0638,2.0635,2.0623,2.0619,2.061,2.0598,2.0585,2.0576,2.0563,2.0543,2.054,2.0534,2.0533,2.0532,2.053,2.0521,2.0518,2.0543,2.0543,2.0543,0,0,2.0698,2.0688,2.068,2.066,2.0651,2.0638,2.0642,2.0627,2.0618,2.0616,2.0598,2.0592,2.0579,2.056,2.0551,2.0553,2.0523,2.053,2.053,2.0528,2.0519,2.0517,2.0515,2.0542,2.0542,2.0542,0,0,2.0679,2.0669,2.0654,2.0645,2.0632,2.0627,2.0623,2.061,2.0605,2.0587,2.0587,2.0576,2.0552,2.0544,2.0536,2.0517,2.0517,2.0513,2.0505,2.0496,2.0494,2.0492,2.0486,2.0484,2.0511,2.0511,2.0511,0,2.0671,2.065,2.0646,2.0631,2.0623,2.0623,2.0608,2.06,2.0583,2.0578,2.0581,2.0553,2.0545,2.0524,2.052,2.0513,2.051,2.0514,2.0494,2.0493,2.0491,2.0485,2.0483,2.0511,2.0511,2.0511,2.0511,0,2.0643,2.0629,2.0618,2.0603,2.0594,2.0579,2.0573,2.0565,2.0563,2.0558,2.0541,2.053,2.0516,2.0511,2.0509,2.0491,2.0494,2.0496,2.0501,2.0488,2.0483,2.0481,2.051,2.051,2.051,2.051,0,0,2.0618,2.0602,2.0599,2.0593,2.058,2.0569,2.0555,2.0542,2.0536,2.0525,2.0514,2.0495,2.0498,2.049,2.0487,2.0479,2.0466,2.0482,2.0482,2.048,2.0448,2.0446,2.0444,2.0466,2.0466,2.0465,2.0449,0,2.0597,2.0573,2.057,2.0548,2.0536,2.0537,2.0525,2.0516,2.0512,2.0501,2.0496,2.0484,2.0487,2.0483,2.0475,2.0469,2.0459,2.047,2.0456,2.0456,2.046,2.0441,2.0439,2.0424,2.0447,2.0446,2.0446,0,2.0569,2.0559,2.0537,2.0528,2.0523,2.0512,2.0501,2.0491,2.0482,2.0479,2.0471,2.047,2.0457,2.0464,2.0446,2.0454,2.0449,2.0445,2.0444,2.0443,2.045,2.044,2.0419,2.0417,2.0443,2.0443,2.0443,0,2.0555,2.0536,2.0521,2.0515,2.0504,2.0497,2.0492,2.0483,2.0476,2.0467,2.0462,2.0451,2.0445,2.0437,2.0434,2.0438,2.0417,2.0423,2.0415,2.0415,2.041,2.0411,2.0389,2.0406,2.0406,2.0406,2.0406,0,2.0533,2.0519,2.0514,2.0505,2.0491,2.0488,2.0474,2.0469,2.0462,2.0452,2.0452,2.0443,2.0438,2.0429,2.0426,2.0413,2.041,2.0409,2.0408,2.0409,2.0409,2.0405,2.0406,2.0406,2.0406,2.0406,2.0406,0,2.0514,2.051,2.0494,2.0485,2.0483,2.0473,2.0465,2.0457,2.0453,2.0441,2.0438,2.0432,2.0422,2.0418,2.0404,2.0402,2.0388,2.0388,2.0391,2.0391,2.0384,2.0385,2.0359,2.0356,2.0375,2.0374,2.0374,0,2.05,2.049,2.0481,2.0475,2.047,2.046,2.0453,2.0451,2.0444,2.0434,2.0427,2.0417,2.0408,2.0391,2.0386,2.0377,2.0377,2.0369,2.0375,2.0377,2.0378,2.0378,2.0378,2.0367,2.0367,2.0367,2.0367,0,2.0476,2.0475,2.0466,2.0457,2.0449,2.0442,2.0434,2.0429,2.0426,2.0419,2.0408,2.0402,2.0389,2.0379,2.037,2.0365,2.0366,2.0365,2.0363,2.0363,2.0366,2.0366,2.0388,2.0365,2.0365,2.0366,2.0366,2.0366,2.046,2.0452,2.0445,2.0435,2.043,2.0424,2.0416,2.0412,2.0403,2.0393,2.0392,2.0382,2.0375,2.0362,2.0357,2.0349,2.0352,2.0348,2.0347,2.0347,2.0347,2.0368,2.0348,2.0348,2.0348,2.0348,2.0348,0,2.0437,2.0433,2.0424,2.0415,2.0408,2.041,2.0402,2.0396,2.0387,2.0381,2.0373,2.0362,2.0353,2.0348,2.0339,2.0334,2.0334,2.0332,2.0332,2.0332,2.0345,2.0348,2.0332,2.0332,2.0332,2.0332,2.0332,2.0332,2.0424,2.0411,2.041,2.0395,2.0392,2.0382,2.0377,2.0372,2.0367,2.0355,2.0348,2.0345,2.034,2.0331,2.0324,2.0322,2.032,2.0317,2.0316,2.0329,2.033,2.0332,2.0335,2.0316,2.0316,2.0304,2.0304,2.0304]},{"header":{"parameterUnit":"m.s-1","parameterCategory":1,"la1":30.2991,"la2":30.254,"lo1":-89.0895,"lo2":-89.0444,"dy":0.0017,"dx":0.0017,"nx":28,"ny":28,"refTime":"2023-04-01T21:00:00:Z","depth":0,"parameterNumber":3,"parameterNumberName":"V-component_of_WINDS"},"data":[0,0,0,0,0,0,0,0,0,0,0,0,0,0,0,0,0,0,0,0,0,0,0,0,0,0,0,0,0,0,0,0,0,0,0,0,0,0,0,0,0,0,0,0,0,0,0,0,0,0,0,0,0,0,0,0,0,0,2.5686,2.5687,0,2.5767,2.5768,2.5769,2.5774,2.5773,2.5773,2.5772,2.5852,2.5855,2.5858,0,0,0,0,0,0,0,0,0,0,0,0,0,2.5531,2.5534,2.5686,2.5687,2.5688,2.5767,2.5768,2.577,2.5775,2.5773,2.5772,2.5771,2.5851,2.5854,2.5858,0,0,0,0,0,0,0,0,0,0,0,0,0,2.5604,2.5535,2.5686,2.57,2.5702,2.5767,2.5768,2.577,2.5775,2.5773,2.5772,2.5771,2.585,2.5854,2.5859,2.5914,0,0,2.5872,2.5874,0,0,0,0,0,0,0,0,2.56,2.561,2.5697,2.5699,2.5702,2.5759,2.5743,2.5818,2.5775,2.5747,2.5772,2.577,2.5822,2.5829,2.5847,2.5917,2.5921,2.5873,2.5875,2.5877,2.5879,0,0,0,0,0,0,0,2.5595,2.5606,2.5718,2.5698,2.5701,2.5701,2.571,2.5757,2.5791,2.575,2.575,2.576,2.5823,2.5843,2.5849,2.5922,2.5872,2.5876,2.5879,2.5881,2.6038,2.604,0,0,0,0,0,0,2.5587,2.5602,2.5716,2.5721,2.5647,2.5705,2.5715,2.5742,2.5791,2.5797,2.5761,2.576,2.5836,2.5844,2.5852,2.5917,2.5877,2.5881,2.5884,2.6037,2.6039,2.604,0,0,0,0,0,0,2.5584,2.5598,2.5712,2.5662,2.5676,2.5709,2.574,2.5745,2.5764,2.5799,2.5805,2.5775,2.5835,2.5845,2.5898,2.592,2.5883,2.5888,2.6035,2.6037,2.6039,2.6049,0,0,0,0,0,0,2.558,2.5596,2.5619,2.5662,2.5679,2.5758,2.5741,2.5747,2.5772,2.5771,2.5814,2.582,2.5835,2.5891,2.5902,2.5925,2.5891,2.6033,2.6036,2.6039,2.6047,2.6052,2.6056,0,0,0,0,0,2.5574,2.5618,2.562,2.5634,2.5708,2.576,2.5769,2.5786,2.5774,2.5796,2.5818,2.5818,2.5916,2.5896,2.5909,2.5934,2.6032,2.6035,2.6039,2.6045,2.6051,2.6056,0,0,0,0,0,0,2.5576,2.5624,2.5627,2.5686,2.5719,2.576,2.5789,2.5792,2.5828,2.5826,2.5844,2.5854,2.5905,2.5925,2.5902,2.5988,2.5972,2.5978,2.5973,2.5979,2.5983,2.5976,2.5895,0,0,0,0,0,2.5584,2.5623,2.5663,2.5711,2.5728,2.5755,2.5779,2.5789,2.5823,2.5837,2.5863,2.5895,2.5933,2.5957,2.5994,2.6051,2.6058,2.6074,2.6078,2.6081,2.6086,2.6114,2.6121,2.6051,2.6051,2.6051,0,0,2.56,2.5631,2.5654,2.5713,2.5739,2.5778,2.5767,2.5809,2.5837,2.5843,2.5893,2.5914,2.595,2.6004,2.603,2.6022,2.6107,2.6085,2.6088,2.6091,2.6118,2.6125,2.6131,2.6054,2.6053,2.6053,0,0,2.5647,2.5676,2.5719,2.5745,2.5786,2.5803,2.5813,2.5854,2.5868,2.5919,2.5924,2.5957,2.6022,2.6048,2.6069,2.6125,2.6125,2.6136,2.6157,2.6185,2.619,2.6195,2.6213,2.6219,2.6141,2.6141,2.6141,0,2.5661,2.5721,2.574,2.5781,2.5806,2.5813,2.5855,2.588,2.593,2.5945,2.5937,2.6018,2.6043,2.6102,2.6115,2.6133,2.6144,2.6131,2.6189,2.6194,2.6198,2.6215,2.6222,2.6142,2.6142,2.6142,2.6141,0,2.5735,2.5776,2.5806,2.5854,2.5882,2.5923,2.5946,2.5972,2.598,2.5998,2.6048,2.6079,2.6121,2.6136,2.6144,2.6195,2.619,2.6185,2.6169,2.6206,2.6221,2.6228,2.6143,2.6143,2.6142,2.6142,0,0,2.5786,2.5844,2.5854,2.5875,2.5919,2.5951,2.5991,2.6033,2.6054,2.6088,2.6121,2.6175,2.617,2.6194,2.6205,2.623,2.6269,2.6222,2.6223,2.6227,2.6324,2.6326,2.6333,2.627,2.6271,2.6272,2.632,0,2.5837,2.5911,2.5929,2.5991,2.6028,2.6035,2.607,2.61,2.6118,2.615,2.6169,2.6207,2.6199,2.6213,2.6238,2.6259,2.6288,2.6256,2.6299,2.63,2.6287,2.6342,2.6345,2.6388,2.6327,2.6328,2.6329,0,2.5907,2.5942,2.6009,2.6046,2.6062,2.6094,2.6132,2.6164,2.6197,2.6208,2.6235,2.6242,2.6283,2.6266,2.6321,2.6299,2.6317,2.633,2.6332,2.6335,2.6315,2.6345,2.6403,2.6409,2.6339,2.6338,2.6338,0,2.5935,2.5999,2.6046,2.6064,2.611,2.6132,2.6151,2.6184,2.6207,2.624,2.6255,2.6292,2.6312,2.634,2.6357,2.6343,2.6409,2.6395,2.6418,2.6417,2.643,2.6429,2.649,2.6445,2.6445,2.6445,2.6445,0,2.5989,2.6028,2.6059,2.6088,2.6132,2.6151,2.6193,2.6213,2.6241,2.6272,2.6281,2.631,2.6331,2.6363,2.6376,2.6418,2.6428,2.6436,2.6439,2.6434,2.6433,2.6445,2.6442,2.6447,2.6446,2.6446,2.6446,0,2.6026,2.6049,2.6101,2.614,2.615,2.6181,2.6213,2.624,2.6258,2.6298,2.6308,2.6335,2.6372,2.6392,2.6439,2.6448,2.6494,2.6496,2.6483,2.6484,2.6505,2.6502,2.6575,2.6585,2.6535,2.6535,2.6536,0,2.6058,2.6089,2.6131,2.6153,2.6173,2.6209,2.6233,2.6252,2.6276,2.6315,2.6337,2.6375,2.6406,2.6465,2.6488,2.6523,2.6525,2.6548,2.653,2.6524,2.6522,2.6519,2.6521,2.655,2.6551,2.6551,2.6552,0,2.6112,2.6121,2.6156,2.6194,2.6222,2.6252,2.6282,2.6299,2.6323,2.6349,2.6388,2.6412,2.6459,2.6496,2.6533,2.6551,2.6554,2.6557,2.6564,2.6559,2.6549,2.6552,2.6489,2.6555,2.6555,2.6555,2.6554,2.6554,2.6146,2.6173,2.6206,2.6244,2.6268,2.6296,2.6323,2.6344,2.6377,2.6417,2.6426,2.6466,2.6497,2.6546,2.6566,2.6596,2.6591,2.6602,2.6604,2.6606,2.6605,2.6546,2.6603,2.6603,2.6603,2.6603,2.6603,0,2.6198,2.622,2.6254,2.6296,2.6325,2.6327,2.636,2.6383,2.6419,2.6447,2.6478,2.6521,2.6556,2.6581,2.6617,2.6636,2.6638,2.6644,2.6642,2.6646,2.6609,2.6599,2.6642,2.6642,2.6642,2.6642,2.6642,2.6642,2.6229,2.6273,2.6286,2.6342,2.6363,2.6403,2.6421,2.6446,2.6469,2.6517,2.6546,2.6563,2.659,2.6627,2.6659,2.6665,2.6677,2.6682,2.6689,2.6653,2.6649,2.6645,2.6635,2.6685,2.6685,2.6723,2.6723,2.6723]}]]